Terug naar catalogus

THOR BURNER 2 R/B

ActiefSSO
NORAD 2741·ROCKET BODY·🇺🇸 United States

Gelanceerd Feb 8, 1967 vanaf Vandenberg Space Force Base

Loading…

Volgende Passages (komende 24 uur)

TLE

VersSource: Space-Track

Epoch: Sep 14, 2026, 21:09 UTC

1 02741U 67010B   26257.88147670  .00000129  00000-0  68326-4 0  9992
2 02741  98.9842 214.4337 0053026  26.0373 334.3457 14.29276586 98081

Volg THOR BURNER 2 R/B in realtime met AllMySat

Download on the App Store